www.pogodaiklimat.ru

Погода и климат >> Архив погоды >> Россия >> Иркутская область >> Залари


ПОГОДА в Заларях

  • Прогноз погоды в Заларях
  • Монитор погоды в Заларях

АРХИВ ПОГОДЫ в Заларях

Время (UTC), дата Ветер
(напр.,м/с)
 
Видим.   Явления Облачность Т
(С)
Тd
(С)
f
(%)
Тe
(С)
Тes
(С)
Комфортность P
(гПа)
Po
(гПа)
Тmin
(С)
Tmax
(С)
R
(мм)
R24
(мм)
S
(см)
03 11.09 С 1 10 км слаб. ливневой дождь 10/8 600 м
[Cb cap As op]
+10.5 +10.0 97 +10 +10 1015.7 962.7
06 11.09 З 2 10 км слаб. ливневой дождь 10/8 300 м
[Cb cap As op]
+11.3 +10.5 95 +10 +10 1014.0 961.3
09 11.09 З 2 20 км слаб. ливневой дождь 10/8 600 м
[Cb cap As op]
+11.1 +10.2 94 +10 +10 1012.7 960.0
12 11.09 ЮЗ 1 50 км {ливн. осадки} 10/3 600 м
[Cb calv As op]
+9.8 +9.2 96 +9 +9 1013.0 960.0 +11.5 9
15 11.09 ЮЗ 1 н/о 10/0
[As op]
+8.4 +8.1 98 +7 +7 1013.3 960.0
18 11.09 штиль 0 н/о 10/0
[As op]
+7.9 +7.6 98 +7 +7 1013.4 960.0
21 11.09 ЮЗ 1 н/о 8/0
[Ac trans]
+6.9 +6.6 98 +6 +6 1013.6 960.0
00 12.09 Ю 1 200 м туман ясно +4.3 +4.2 99 +3 +3 1014.1 960.0 +3.5
03 12.09 СЗ 1 50 км {туман} 8/5 600 м
[Cb cap Ac trans]
+11.7 +7.8 77 +12 +14 1014.0 961.3
06 12.09 С 2 50 км {туман} 8/5 600 м
[Cb cap Ac trans]
+13.6 +6.9 64 +13 +16 1013.7 961.3
09 12.09 СЗ 3
{11}
50 км {ливн. осадки} 10/8 600 м
[Cb calv As op]
+8.6 +3.8 72 +6 +6 1015.9 962.4
12 12.09 З 2 50 км {ливн. осадки} 8/6 600 м
[Cb cap Ac trans]
+7.7 +3.2 73 +6 +6 1019.1 965.3 +13.6 0.0
15 12.09 Ю 1 н/о 8/4 600 м
[Sc Ac trans]
+4.3 +3.4 94 +3 +3 1019.7 965.3
18 12.09 штиль 0 н/о 10/4 600 м
[Cb cap Ac As]
+4.9 +4.2 95 +4 +4 1019.5 965.1
21 12.09 СЗ 1 н/о слаб. ливневой дождь 9/6 600 м
[Cb cap Ac As]
+3.7 +2.9 95 +2 +2 1019.4 964.8
00 13.09 ЮВ 1 50 км {ливн. осадки} 8/4 600 м
[Cb cap Ac trans]
+3.6 +3.0 96 +2 +2 1018.5 964.0 +3.2 2
03 13.09 Ю 3 50 км 9/6 600 м
[Cb cap Ac As]
+7.7 +3.7 76 +5 +6 1017.7 964.0
06 13.09 З 2 50 км 10/6 600 м
[Cb cap As trans]
+11.0 +2.8 57 +10 +10 1014.2 961.3
09 13.09 Ю 2 50 км 9/6 600 м
[Cb cap Ac und]
+12.3 +2.5 51 +12 +12 1011.2 958.7
12 13.09 С 2 50 км 9/6 600 м
[Cb cap Ac As]
+6.3 +3.5 82 +4 +4 1013.7 960.0 +13.1
15 13.09 ЮЗ 1 н/о 8/4 600 м
[Sc Ac trans]
+3.8 +3.1 95 +2 +2 1014.2 960.0
18 13.09 ЮЗ 1 н/о 6/3 600 м
[Sc Ac trans]
+1.2 +0.9 98 -1 -1 1013.4 958.7
21 13.09 штиль 0 н/о 8/5 600 м
[Sc Ac trans]
+0.1 -0.0 99 -1 -1 1013.7 958.7
00 14.09 СЗ 2 50 км 9/8 600 м
[Cb cap Ac As]
+3.7 +1.9 88 +1 +1 1014.3 960.0 0.0
03 14.09 З 3 50 км {ливн. осадки} 9/4 600 м
[Cb cap Ac As]
+5.8 +1.1 72 +3 +3 1015.2 961.3
06 14.09 СЗ 4 50 км {ливн. осадки} 8/8 600 м
[Sc]
+7.4 -2.9 48 +5 +6 1017.8 964.0
09 14.09 С 2
{13}
50 км 8/4 600 м
[Sc Ac trans]
+7.0 -1.9 53 +5 +6 1019.3 965.3
12 14.09 СЗ 1 50 км 9/4 600 м
[Sc Ac As]
+3.9 -1.5 68 +3 +3 1022.7 968.0 +9.2 0.0
15 14.09 ЮЗ 2 н/о 9/0
[Ac As]
+2.3 -0.6 81 -1 -1 1024.4 969.3
18 14.09 В 1 н/о 9/0
[Ac As]
+0.5 -0.5 93 -2 -2 1023.4 968.0
21 14.09 штиль 0 н/о 9/0
[Ac As]
+0.1 -1.0 92 -1 -1 1022.1 966.7
00 15.09 штиль 0 50 км 9/0
[Ci sp]
+0.9 -0.7 89 -0 -0 1020.5 965.3 -0.6
03 15.09 Ю 3 50 км 7 баллов +8.3 -1.0 52 +6 +8 1017.6 964.0
06 15.09 ЮЗ 1 50 км в посл. час ливневой дождь 9 баллов +10.2 +2.5 59 +10 +11 1015.8 962.7
09 15.09 СЗ 1 20 км слаб. ливневой дождь 9/6 600 м
[Cb cap Ac As]
+9.6 +5.4 75 +9 +10 1015.9 962.7
12 15.09 Ю 2 50 км 9 баллов +7.5 +5.1 85 +5 +5 1014.9 961.3 +10.8 0.0
15 15.09 ЮЗ 2 н/о слаб. ливневой дождь 9/8 600 м
[Cb cap Ac As]
+7.0 +5.5 90 +5 +5 1016.4 962.7
18 15.09 ЮЗ 1 н/о 9 баллов +6.3 +4.9 91 +5 +5 1015.1 961.3
21 15.09 ЮЗ 1 н/о 9 баллов +6.5 +5.1 91 +5 +5 1015.1 961.3
00 16.09 З 1 20 км слаб. ливневой дождь 9 баллов +7.1 +6.4 95 +6 +6 1016.4 962.7 +5.7 2
03 16.09 СЗ 2 50 км 9 баллов +7.5 +5.0 84 +5 +6 1019.1 965.3
06 16.09 СЗ 3 50 км 9 баллов +10.1 +4.5 68 +8 +9 1020.1 966.7
09 16.09 СЗ 3 50 км 4 балла +10.9 +0.6 49 +9 +11 1020.0 966.7
12 16.09 З 1 50 км 4 балла +5.1 -0.1 69 +4 +4 1023.8 969.3 +11.5 0.8
15 16.09 штиль 0 н/о 6 баллов +1.5 0.0 90 0 0 1027.4 972.0
18 16.09 штиль 0 н/о 7 баллов +2.3 +1.1 92 +1 +1 1028.6 973.3
21 16.09 штиль 0 н/о 10 баллов +2.9 +2.2 95 +2 +2 1027.1 972.0
00 17.09 СВ 1 50 км 9 баллов +4.7 +3.0 89 +3 +3 1028.1 973.3 +0.8
03 17.09 Ю 2 50 км 4 балла +12.2 +5.6 64 +11 +15 1025.2 972.0
06 17.09 ЮВ 1 50 км ясно +17.5 +5.7 46 +19 +27 1022.9 970.7
12 17.09 В 1 50 км ясно +11.6 +5.9 68 +12 +12 1022.5 969.3 +18.5
15 17.09 В 1 н/о ясно +5.4 +4.0 91 +4 +4 1023.7 969.3
18 17.09 С 1 н/о 4 балла +3.1 +2.7 97 +1 +1 1021.5 966.7
21 17.09 штиль 0 н/о 6 баллов +4.2 +3.2 93 +3 +3 1021.2 966.7

 

Местоположение метеостанции Залари (Иркутская область, Россия): широта 53.55 долгота 102.50 высота над уровнем моря 449 м.

В архиве по умолчанию представлена погода в Заларях за последнюю неделю. Архивные данные за месяц целиком и за предыдущие месяцы, начиная с января 2011 года, Вы можете получить, выбрав интересующий диапазон дат из раскрывающегося списка и нажав кнопку "Ввод!".


*Определитесь, кто Вы:
робот инопланетянин человек

Внимание! Время в таблицах - всемирное. Для получения местного времени необходимо прибавить поправку, которая равна 8 ч.

Смотрите также архив погоды в соседних городах и на ближайших метеорологических станциях:

Погода в Черемхово (Иркутская область, Россия) (53 км)
Погода в Зиме (Иркутская область, Россия) (54 км)
Погода в Балаганске (Иркутская область, Россия) (60 км)
Погода в Инге (Иркутская область, Россия) (76 км)
Погода в Сараме (Иркутская область, Россия) (89 км)
Погода в Ангарск (Иркутская область, Россия) (147 км)
Погода в Дабадах (Иркутская область, Россия) (162 км)
Погода в Усть-Ордынском (Иркутская область, Россия) (168 км)
Погода в Тулуне (Иркутская область, Россия) (170 км)
Погода в Хомутово (Иркутская область, Россия) (171 км)

Пояснения к столбцам:

Ветер - указаны скорость ветра в м/с - средняя за 10 мин, порывы в срок и между сроками (в фигурных скобках) и направление, откуда дует ветер: С - северный, СВ - северо-восточный, В - восточный, ЮВ - юго-восточный, Ю - южный, ЮЗ - юго-западный, З - западный, СЗ - северо-западный.
Видимость - горизонтальная дальность видимости в метрах или километрах. При видимости от 1 до 10 км при отсутствии осадков обычно наблюдается дымка, при ухудшении видимости до 1 км и менее - туман. В сухую погоду видимость может ухудшаться дымом, пылью или мглою.
Явления - указаны атмосферные явления, наблюдавшиеся в срок или в последний час перед сроком; фигурными скобками обозначены явления, наблюдавшиеся между сроками (за 1-3 часа до срока); квадратными скобками обозначены град или гололедные отложения с указанием их диаметра в мм.
Облачность - указаны через наклонную черту общая и нижняя облачность в баллах и высота нижней границы облаков в метрах; квадратными скобками обозначены формы облаков: Ci - перистые, Cs - перисто-слоистые, Cc - перисто-кучевые, Ac - высококучевые, As - высокослоистые, Sc - слоисто-кучевые, Ns - слоисто-дождевые, Cu - кучевые, Cb - кучево-дождевые. Подробнее классификацию облаков см. в Атласе облаков (PDF).
T - Температура воздуха - температура, измеренная на высоте 2 м над землей.
Td - Температура точки росы - температура, при понижении до которой содержащийся в воздухе водяной пар достигнет насыщения.
f - Относительная влажность воздуха - влажноcть воздуха, измеренная на высоте 2 м над землей.
Te - Эффективная температура - температура, которую ощущает одетый по сезону человек в тени. Характеристика душности погоды. При расчете учитывается влияние влажности воздуха и скорости ветра на теплоощущения человека.
Tes - Эффективная температура на солнце - температура, которую ощущает человек, с поправкой на солнечный нагрев. Характеристика знойности погоды. Зависит от высоты солнца над горизонтом, облачности и скорости ветра. Ночью, в пасмурную погоду, а также при ветре 12 м/с и более поправка равна нулю.
P - Атмосферное давление - приведенное к уровню моря атмосферное давление.
Po - Атмосферное давление - измеренное на уровне метеостанции атмосферное давление.
Tmin - Минимальная температура - минимум температуры воздуха на высоте 2 м над землей.
Tmax - Максимальная температура - максимум температуры воздуха на высоте 2 м над землей.
R - Количество осадков - Количество выпавших осадков за период времени, мм. При наведении курсора мыши на число - период времени, за который выпало указанное количество осадков.
R24 - Количество осадков - Количество выпавших осадков за 24 часа, мм.
S - Снежный покров - Высота снежного покрова, см. При наведении курсора мыши на число - состояние снежного покрова и степень покрытия местности в баллах.